Regional Weather Roundup
Issued by NWS

Home | Current Version | Previous Version | Graphics & Text | Print | Product List | Glossary On
Versions: 1 2 3 4 5 6 7 8 9 10 11 12 13 14 15 16 17 18 19 20 21 22 23 24 25 26 27 28 29 30 31 32 33 34 35 36 37 38 39 40 41 42 43 44 45 46 47 48 49 50
000
ASUS43 KLMK 192302
RWRKY
KENTUCKY REGIONAL WEATHER ROUNDUP
NATIONAL WEATHER SERVICE LOUISVILLE KY
700 PM EDT SAT AUG 19 2017

NOTE "FAIR" INDICATES FEW OR NO CLOUDS BELOW 12,000 FEET
WITH NO SIGNIFICANT WEATHER AND/OR OBSTRUCTIONS TO VISIBILITY.

KYZ001>023-026-027-061>063-070>075-200000-
WESTERN AND SOUTH CENTRAL KENTUCKY

CITY           SKY/WX    TMP DP  RH WIND       PRES   REMARKS
PADUCAH        SUNNY     92  65  40 W3        29.91F HX  94
HENDERSON      SUNNY     86  71  60 NW6       29.93S HX  91
OWENSBORO      MOSUNNY   89  70  53 W5        29.93F HX  94
HOPKINSVILLE   PTSUNNY   86  72  63 E7        29.94S HX  92
BOWLING GREEN  MOSUNNY   88  68  51 VRB5      29.95S HX  91
GLASGOW        CLOUDY    85  67  55 SW3       29.96F
$$

KYZ024-025-028>034-038-045-046-053-200000-
NORTH CENTRAL KENTUCKY

CITY           SKY/WX    TMP DP  RH WIND       PRES   REMARKS
LOUISVILLE/SDF MOSUNNY   88  64  44 SW9       29.93S
LOUISVILLE/LOU SUNNY     87  64  46 SW12      29.94S
FORT KNOX      SUNNY     87  67  51 SW6       29.93F
$$

KYZ035>037-039>044-047>052-055>060-089>105-200000-
NORTHEAST KENTUCKY

CITY           SKY/WX    TMP DP  RH WIND       PRES   REMARKS
LEXINGTON      SUNNY     82  65  56 SW6       29.97R
COVINGTON      MOSUNNY   82  68  62 SW6       29.95R
FRANKFORT      CLOUDY    82  67  60 N5        29.95S
$$

KYZ054-064>069-076>088-106>120-200000-
SOUTHEAST KENTUCKY

CITY           SKY/WX    TMP DP  RH WIND       PRES   REMARKS
JACKSON        SUNNY     83  68  60 CALM      30.00R
LONDON         SUNNY     84  66  54 W7        29.99S
SOMERSET       NOT AVBL
MIDDLESBORO    SUNNY     85  68  57 CALM      29.99S
MONTICELLO     CLEAR     84  69  60 W14       30.00S
$$





USA.gov is the U.S. government's official web portal to all federal, state and local government web resources and services.